GW6272 Weather Reports


time (UTC)temp
F
wind
direction
speed
knots
gust
knots
rain 1hr
in
rain 24hr
in
rain mn
in
humidity
%
barometer
mb
20260509210431 59 353 0.9 1.7 0.00 0.39 0.39 84 1008.9
20260509205926 59 353 0.9 1.7 0.00 0.39 0.39 84 1008.9
20260509205421 59 353 0.9 1.7 0.00 0.39 0.39 84 1008.9
20260509204917 59 151 0.9 1.7 0.00 0.39 0.39 84 1009.0
20260509204413 58 301 0.9 1.7 0.00 0.39 0.39 86 1008.9
20260509200411 57 303 0.9 1.7 0.00 0.39 0.39 88 1009.4
20260509195908 57 303 0.9 1.7 0.00 0.39 0.39 88 1009.4
20260509195403 57 303 0.9 1.7 0.00 0.39 0.39 88 1009.4
20260509194902 57 337 0.0 0.9 0.00 0.39 0.39 89 1009.4
20260509185859 54 40 0.0 0.0 0.12 0.37 0.37 92 1010.1
20260509185356 54 40 0.0 0.0 0.12 0.37 0.37 92 1010.1
20260509184853 54 40 0.0 0.0 0.12 0.37 0.37 92 1010.1
20260509184349 54 30 0.0 0.9 0.12 0.36 0.36 93 1010.1
20260509175849 54 59 0.0 1.7 0.07 0.23 0.23 89 1010.2
20260509175345 54 59 0.0 1.7 0.07 0.23 0.23 89 1010.2
20260509174841 54 59 0.0 1.7 0.07 0.23 0.23 89 1010.2
20260509170342 54 264 0.0 0.9 0.07 0.17 0.17 90 1009.9
20260509165841 54 264 0.0 0.9 0.07 0.17 0.17 90 1009.9
20260509165336 54 264 0.0 0.9 0.07 0.17 0.17 90 1009.9
20260509164832 54 344 0.0 0.9 0.07 0.16 0.16 90 1010.2
20260509164329 55 326 0.9 2.6 0.07 0.14 0.14 89 1010.3
20260509163825 55 326 0.9 2.6 0.07 0.14 0.14 89 1010.3
20260509163322 55 326 0.9 2.6 0.07 0.14 0.14 89 1010.3
20260509160334 55 343 0.0 0.9 0.07 0.10 0.10 87 1010.3
20260509155830 55 343 0.0 0.9 0.07 0.10 0.10 87 1010.3
20260509155326 55 343 0.0 0.9 0.07 0.10 0.10 87 1010.3
20260509154823 55 337 0.0 1.7 0.05 0.09 0.09 86 1010.4
20260509154319 55 209 0.9 0.9 0.07 0.08 0.08 86 1010.3
20260509153816 55 209 0.9 0.9 0.07 0.08 0.08 86 1010.3
20260509153313 55 209 0.9 0.9 0.07 0.08 0.08 86 1010.3
20260509150816 56 335 0.0 0.0 0.07 0.06 0.06 83 1010.5
20260509150313 56 335 0.0 0.0 0.07 0.06 0.06 83 1010.5
20260509145810 56 335 0.0 0.0 0.07 0.06 0.06 83 1010.5
20260509145309 55 9 0.0 0.0 0.00 0.05 0.05 84 1010.6
20260509144807 55 6 0.9 0.9 0.00 0.05 0.05 85 1010.5
20260509144303 55 24 0.0 0.0 0.05 0.05 0.05 86 1010.2
20260509143800 55 24 0.0 0.0 0.05 0.05 0.05 86 1010.2
20260509143257 55 24 0.0 0.0 0.05 0.05 0.05 86 1010.2
20260509142301 54 29 0.0 0.0 0.00 0.04 0.04 89 1010.2
20260509141757 54 29 0.0 0.0 0.00 0.04 0.04 89 1010.2
20260509141254 54 29 0.0 0.0 0.00 0.04 0.04 89 1010.2
20260509134255 54 359 0.0 0.0 0.07 0.04 0.04 88 1010.4
20260509133752 54 359 0.0 0.0 0.07 0.04 0.04 88 1010.4
20260509133248 54 359 0.0 0.0 0.07 0.04 0.04 88 1010.4
20260509130242 53 4 0.0 0.9 0.07 0.03 0.03 90 1010.1
20260509125738 53 4 0.0 0.9 0.07 0.03 0.03 90 1010.1
20260509125236 53 4 0.0 0.9 0.07 0.03 0.03 90 1010.1
20260509124239 52 45 0.9 0.9 0.00 0.02 0.02 91 1009.9
20260509123738 52 45 0.9 0.9 0.00 0.02 0.02 91 1009.9
20260509123235 52 45 0.9 0.9 0.00 0.02 0.02 91 1009.9
20260509120229 50 42 0.0 0.9 0.00 0.02 0.02 95 1010.0
20260509115727 50 42 0.0 0.9 0.00 0.02 0.02 95 1010.0
20260509115223 50 42 0.0 0.9 0.00 0.02 0.02 95 1010.0
20260509110220 50 61 0.0 0.9 0.05 0.02 0.02 95 1010.4
20260509105719 50 61 0.0 0.9 0.05 0.02 0.02 95 1010.4
20260509105216 50 61 0.0 0.9 0.05 0.02 0.02 95 1010.4
20260509100210 49 42 0.0 0.0 0.00 0.01 0.01 94 1010.1
20260509095707 49 42 0.0 0.0 0.00 0.01 0.01 94 1010.1
20260509095204 49 42 0.0 0.0 0.00 0.01 0.01 94 1010.1
20260509090155 49 56 0.9 0.9 0.00 0.01 0.01 94 1010.6
20260509085652 49 56 0.9 0.9 0.00 0.01 0.01 94 1010.6
20260509085148 49 56 0.9 0.9 0.00 0.01 0.01 94 1010.6
20260509080144 49 8 0.0 0.0 0.00 0.01 0.01 96 1011.4
20260509075642 49 8 0.0 0.0 0.00 0.01 0.01 96 1011.4
20260509075139 49 8 0.0 0.0 0.00 0.01 0.01 96 1011.4
20260509073137 49 17 0.0 1.7 0.00 0.01 0.01 96 1011.2
20260509072634 49 17 0.0 1.7 0.00 0.01 0.01 96 1011.2
20260509072131 49 17 0.0 1.7 0.00 0.01 0.01 96 1011.2
20260509070136 49 31 0.0 0.0 0.00 0.01 0.01 96 1011.4
20260509065631 49 31 0.0 0.0 0.00 0.01 0.01 96 1011.4
20260509065127 49 31 0.0 0.0 0.00 0.01 0.01 96 1011.4
20260509063128 49 19 0.0 0.0 0.00 0.01 0.01 96 1011.5
20260509062626 49 19 0.0 0.0 0.00 0.01 0.01 96 1011.5
20260509062122 49 19 0.0 0.0 0.00 0.01 0.01 96 1011.5
20260509060121 49 19 0.0 0.0 0.00 0.01 0.01 96 1011.9
20260509055617 49 19 0.0 0.0 0.00 0.01 0.01 96 1011.9
20260509055113 49 19 0.0 0.0 0.00 0.01 0.01 96 1011.9
20260509053115 49 348 0.0 0.0 0.00 0.00 0.00 96 1012.5
20260509052613 49 348 0.0 0.0 0.00 0.00 0.00 96 1012.5
20260509052110 49 348 0.0 0.0 0.00 0.00 0.00 96 1012.5
20260509050110 49 355 0.0 0.9 0.00 0.00 0.00 95 1011.8
20260509045608 49 355 0.0 0.9 0.00 0.00 0.00 95 1011.8
20260509045104 49 355 0.0 0.9 0.00 0.00 0.00 95 1011.8
20260509044110 49 6 0.0 0.0 0.00 0.00 0.00 95 1011.7
20260509043607 49 6 0.0 0.0 0.00 0.00 0.00 95 1011.7
20260509043102 49 6 0.0 0.0 0.00 0.00 0.00 95 1011.7
20260509042559 49 40 0.9 0.9 0.00 0.00 0.00 95 1011.4
20260509042055 49 40 0.9 0.9 0.00 0.00 0.00 95 1011.4
20260509041552 49 40 0.9 0.9 0.00 0.00 0.00 95 1011.4
20260509040055 49 10 0.0 0.0 0.00 0.05 0.05 95 1012.0
20260509035552 49 10 0.0 0.0 0.00 0.05 0.05 95 1012.0
20260509035049 49 10 0.0 0.0 0.00 0.05 0.05 95 1012.0
20260509032558 49 339 0.0 0.9 0.00 0.05 0.05 95 1012.0
20260509032055 49 339 0.0 0.9 0.00 0.05 0.05 95 1012.0
20260509031553 49 339 0.0 0.9 0.00 0.05 0.05 95 1012.0
20260509031049 49 2 0.0 0.0 0.05 0.05 0.05 95 1012.1
20260509030548 49 2 0.0 0.0 0.05 0.05 0.05 95 1012.1
20260509030044 48 13 0.0 0.0 0.00 0.04 0.04 95 1012.3
20260509025540 48 13 0.0 0.0 0.00 0.04 0.04 95 1012.3
20260509025036 48 13 0.0 0.0 0.00 0.04 0.04 95 1012.3
20260509022537 48 39 0.0 0.9 0.00 0.04 0.04 95 1011.8
20260509022035 48 39 0.0 0.9 0.00 0.04 0.04 95 1011.8
20260509021532 48 39 0.0 0.9 0.00 0.04 0.04 95 1011.8
20260509020029 48 2 0.0 0.0 0.00 0.04 0.04 93 1011.9
20260509015528 48 2 0.0 0.0 0.00 0.04 0.04 93 1011.9
20260509015025 48 2 0.0 0.0 0.00 0.04 0.04 93 1011.9
20260509012531 51 9 0.0 0.0 0.00 0.04 0.04 89 1011.8
20260509012028 51 9 0.0 0.0 0.00 0.04 0.04 89 1011.8
20260509011526 51 9 0.0 0.0 0.00 0.04 0.04 89 1011.8
20260509011023 51 9 0.0 0.9 0.00 0.04 0.04 89 1011.6
20260509010521 51 10 0.0 0.0 0.00 0.04 0.04 89 1011.6
20260509010017 52 33 0.0 0.0 0.00 0.04 0.04 89 1011.6
20260509005515 52 33 0.0 0.0 0.00 0.04 0.04 89 1011.6
20260509005015 52 33 0.0 0.0 0.00 0.04 0.04 89 1011.6
20260509002513 52 7 0.0 0.0 0.00 0.04 0.04 88 1011.3
20260509002010 52 7 0.0 0.0 0.00 0.04 0.04 88 1011.3
20260509001507 52 7 0.0 0.0 0.00 0.04 0.04 88 1011.3
20260509000009 53 357 0.0 0.0 0.00 0.04 0.04 83 1010.6
20260508235507 53 357 0.0 0.0 0.00 0.04 0.04 83 1010.6
20260508235003 53 357 0.0 0.0 0.00 0.04 0.04 83 1010.6
20260508232503 53 42 0.0 0.0 0.00 0.04 0.04 80 1010.9
20260508231959 53 42 0.0 0.0 0.00 0.04 0.04 80 1010.9
20260508231456 53 42 0.0 0.0 0.00 0.04 0.04 80 1010.9
20260508225953 54 349 0.0 0.9 0.00 0.03 0.03 74 1010.7
20260508225450 54 349 0.0 0.9 0.00 0.03 0.03 74 1010.7
20260508224947 54 349 0.0 0.9 0.00 0.03 0.03 74 1010.7
20260508222451 57 31 0.0 0.9 0.00 0.03 0.03 62 1010.4
20260508221947 57 31 0.0 0.9 0.00 0.03 0.03 62 1010.4
20260508221443 57 31 0.0 0.9 0.00 0.03 0.03 62 1010.4
20260508215944 58 52 0.9 1.7 0.00 0.03 0.03 63 1010.1
20260508215442 58 52 0.9 1.7 0.00 0.03 0.03 63 1010.1
20260508214938 58 52 0.9 1.7 0.00 0.03 0.03 63 1010.1